19981015,55
19990118,90
19990415,100
19990715,100
19991015,90
20000117,90
20000417,100
20000717,100
20001016,100
20010115,100
20010416,100
20010716,100
20011015,100
20020115,105
20020415,105
20020715,105
20021015,100
20030115,95
20030415,100
20030715,105
20031015,95
20040115,100
20040415,95
20040715,95
20041015,95
20050117,90
20050415,90
20050715,90
20051017,95
20060116,90
20060417,90
20060718,90
20061016,90
20070115,95
20070416,95
20070717,95
20071015,90
20080115,90
20080415,90
20080715,90
20081015,90
20090115,80
20090415,70
20090715,60
20091015,50
20100115,50
20100415,50
20100715,55
20101015,50
20110117,45
20110415,50
20110715,50
20111017,50
20120116,45
20120416,45
20120717,45
20121015,40
20130115,40
20130415,40
20130716,45
20131015,45
20140115,45
20140415,45
20140715,40
20141015,45
20150115,55
20150415,55
20150715,50
20151015,50
20160115,50
20160415,50
20160715,45
20161017,45
20170116,45
20170417,45
20170718,45
20171016,40
20180115,40
20180416,40
20180717,40
20181015,40
20190115,40
20190415,40
20190716,40
20191015,40
20200115,40
20200415,40
20200715,40
20201015,40
20210115,35
20210415,35
20210715,35
20211015,35
20220117,35
20220415,35
20220715,35
20221017,35
20230116,35
20230417,35
20230718,45
20231016,50
20240115,55
20240415,50
